Location: Hepcat Sky Observatory
(29.9800°N, 95.6500°W)
Time: 11:19:23
(UTC-05:00)

Cosmos 2366 rocket - Visible Passes

Search period start: 29 June 2016 00:00
Search period end: 09 July 2016 00:00
Orbit: 955 x 997 km, 82.9° (Epoch: 28 June)

Date Brightness Start Highest point End Pass type
(mag) Time Alt. Az. Time Alt. Az. Time Alt. Az.
29 Jun 4.6 02:18:34 50° N 02:18:34 50° N 02:23:01 10° N visible
30 Jun 6.0 00:59:26 17° ENE 00:59:26 17° ENE 01:01:45 10° NE visible
30 Jun 5.0 02:44:07 37° NW 02:44:07 37° NW 02:48:23 10° N visible
01 Jul 5.4 01:24:58 30° NE 01:24:58 30° NE 01:28:34 10° NNE visible
01 Jul 5.6 03:09:39 21° WNW 03:09:39 21° WNW 03:13:05 10° NNW visible
02 Jul 4.9 01:50:30 44° NNE 01:50:30 44° NNE 01:54:36 10° N visible
02 Jul 6.2 03:35:10 10° WNW 03:35:10 10° WNW 03:35:39 10° WNW visible
03 Jul 6.1 00:31:20 14° ENE 00:31:20 14° ENE 00:32:51 10° NE visible
03 Jul 5.0 02:16:00 39° NNW 02:16:00 39° NNW 02:20:06 10° N visible
04 Jul 5.6 00:56:50 25° NE 00:56:50 25° NE 00:59:59 10° NNE visible
04 Jul 5.6 02:41:31 24° NW 02:41:31 24° NW 02:45:00 10° NNW visible
05 Jul 5.1 01:22:19 39° NNE 01:22:19 39° NNE 01:26:09 10° NNE visible
05 Jul 6.1 03:07:00 12° WNW 03:07:00 12° WNW 03:08:36 10° NW visible
06 Jul 6.3 00:03:08 11° ENE 00:03:08 11° ENE 00:03:45 10° NE visible
06 Jul 5.0 01:47:48 40° NNW 01:47:48 40° NNW 01:51:46 10° N visible
07 Jul 5.7 00:28:36 22° NE 00:28:36 22° NE 00:31:21 10° NNE visible
07 Jul 5.5 02:13:16 27° NW 02:13:16 27° NW 02:16:50 10° NNW visible
08 Jul 5.2 00:54:03 35° NNE 00:54:03 35° NNE 00:57:41 10° NNE visible
08 Jul 6.1 02:38:44 15° WNW 02:38:44 15° WNW 02:40:57 10° NW visible
